JA3VQW-13 Weather Reports


time (UTC)temp
C
wind
direction
speed
KPH
gust
KPH
rain 1hr
cm
rain 24hr
cm
rain mn
cm
humidity
%
barometer
mb
20260903230757 23 135 0.0 0.0 0.23 1.22 0.84 93 1003.0
20260903223758 23 135 0.0 0.0 0.33 1.12 0.74 91 1003.0
20260903220758 23 135 0.0 0.0 0.30 0.99 0.61 89 1003.0
20260903213757 23 135 0.0 0.0 0.20 0.79 0.41 87 1003.0
20260903210756 23 135 0.0 4.8 0.10 0.71 0.30 87 1003.0
20260903210511 23 135 0.0 8.0 0.10 0.71 0.30 87 1003.0
20260903205013 23 135 3.2 4.8 0.00 0.61 0.20 88 1003.0
20260903203757 23 180 0.0 0.0 0.00 0.61 0.20 88 1002.0
20260903200758 23 180 0.0 0.0 0.10 0.61 0.20 89 1002.0
20260903193756 23 180 0.0 0.0 0.10 0.61 0.20 89 1001.0
20260903190757 23 180 0.0 0.0 0.10 0.51 0.10 87 1002.0
20260903183758 23 180 0.0 0.0 0.10 0.51 0.10 86 1002.0
20260903180756 23 180 0.0 0.0 0.00 0.41 0.00 86 1002.0
20260903173757 24 180 0.0 0.0 0.00 0.41 0.00 86 1002.0
20260903172011 24 180 0.0 0.0 0.00 0.41 0.00 86 1002.0
20260903170756 24 180 0.0 0.0 0.00 0.41 0.00 85 1002.0
20260903163757 24 180 0.0 0.0 0.00 0.41 0.00 84 1002.0
20260903160757 24 180 0.0 0.0 0.00 0.41 0.00 83 1002.0
20260903153800 24 180 0.0 0.0 0.00 0.41 0.00 80 1002.0
20260903150800 24 180 0.0 0.0 0.00 0.41 0.00 76 1002.0
20260903145015 24 180 0.0 0.0 0.00 0.41 0.41 77 1002.0
20260903143800 24 180 0.0 0.0 0.00 0.41 0.41 78 1003.0
20260903140800 24 180 0.0 0.0 0.00 0.41 0.41 79 1003.0
20260903133801 24 180 0.0 0.0 0.00 0.41 0.41 76 1003.0
20260903130801 24 180 0.0 0.0 0.00 3.58 0.41 75 1002.0
20260903123800 24 180 0.0 0.0 0.00 4.75 0.41 75 1003.0
20260903120800 25 135 0.0 0.0 0.00 4.75 0.41 78 1003.0
20260903113759 25 135 0.0 0.0 0.00 4.75 0.41 79 1004.0
20260903110800 24 135 0.0 0.0 0.00 4.75 0.41 80 1004.0
20260903103800 25 135 0.0 0.0 0.00 4.75 0.41 76 1003.0
20260903100800 25 225 0.0 0.0 0.10 4.75 0.41 78 1003.0
20260903093801 25 225 0.0 0.0 0.20 4.75 0.41 79 1003.0
20260903090759 25 225 0.0 0.0 0.20 4.65 0.30 79 1003.0
20260903083759 25 225 0.0 0.0 0.10 4.55 0.20 77 1003.0
20260903080800 26 225 0.0 0.0 0.00 4.45 0.10 74 1003.0
20260903075015 26 225 0.0 0.0 0.00 4.45 0.10 69 1002.0
20260903073759 26 225 0.0 0.0 0.00 4.45 0.10 67 1003.0
20260903073514 26 225 0.0 0.0 0.00 4.45 0.10 67 1003.0
20260903072015 26 225 0.0 0.0 0.00 4.45 0.10 69 1002.0
20260903070800 27 225 0.0 3.2 0.00 4.45 0.10 70 1002.0
20260903070516 27 225 0.0 0.0 0.00 4.45 0.10 71 1002.0
20260903065015 27 180 0.0 0.0 0.00 4.45 0.10 74 1002.0
20260903063800 27 180 0.0 0.0 0.00 4.45 0.10 73 1002.0
20260903063515 27 180 0.0 0.0 0.00 4.45 0.10 72 1002.0
20260903062015 28 180 0.0 0.0 0.00 4.45 0.10 69 1002.0
20260903060759 28 180 0.0 0.0 0.10 4.45 0.10 66 1002.0
20260903060515 28 180 0.0 0.0 0.10 4.45 0.10 66 1002.0
20260903053759 28 180 0.0 0.0 0.10 4.45 0.10 61 1002.0
20260903052016 28 180 0.0 0.0 0.10 4.45 0.10 58 1002.0
20260903050800 28 180 0.0 0.0 0.00 4.34 0.00 58 1002.0
20260903050515 28 180 0.0 0.0 0.00 4.34 0.00 57 1002.0
20260903045014 29 180 0.0 0.0 0.00 4.34 0.00 56 1002.0
20260903043759 29 180 0.0 0.0 0.00 4.34 0.00 54 1002.0
20260903042014 29 180 0.0 0.0 0.00 4.34 0.00 54 1002.0
20260903040759 29 180 0.0 0.0 0.00 4.34 0.00 54 1002.0
20260903040515 29 180 0.0 0.0 0.00 4.34 0.00 54 1002.0
20260903035014 29 180 0.0 0.0 0.00 4.34 0.00 53 1002.0
20260903033759 29 180 0.0 0.0 0.00 4.34 0.00 51 1002.0
20260903033514 29 180 0.0 0.0 0.00 4.34 0.00 50 1002.0
20260903032014 29 180 0.0 0.0 0.00 4.34 0.00 52 1002.0
20260903030758 30 180 0.0 0.0 0.00 4.34 0.00 51 1002.0
20260903025014 29 180 0.0 0.0 0.00 4.34 0.00 52 1003.0
20260903023759 29 180 0.0 0.0 0.00 4.34 0.00 52 1002.0
20260903023514 29 180 0.0 0.0 0.00 4.34 0.00 52 1002.0
20260903022014 29 180 0.0 0.0 0.00 4.34 0.00 55 1002.0
20260903020758 29 180 0.0 0.0 0.00 4.34 0.00 59 1003.0
20260903020513 29 180 0.0 0.0 0.00 4.34 0.00 59 1003.0
20260903015014 28 180 0.0 0.0 0.00 4.34 0.00 63 1003.0
20260903013759 28 180 0.0 0.0 0.00 4.34 0.00 61 1003.0
20260903013514 28 180 0.0 0.0 0.00 4.34 0.00 61 1003.0
20260903010800 28 180 0.0 0.0 0.00 4.34 0.00 64 1003.0
20260903005014 28 180 0.0 0.0 0.00 4.34 0.00 65 1003.0
20260903003800 28 180 0.0 0.0 0.00 4.34 0.00 65 1003.0
20260903003515 28 180 0.0 0.0 0.00 4.34 0.00 64 1003.0
20260903000758 27 180 0.0 0.0 0.00 4.34 0.00 62 1003.0
20260903000514 27 180 0.0 0.0 0.00 4.34 0.00 61 1003.0
20260902235015 27 180 0.0 0.0 0.00 4.34 0.00 60 1003.0
20260902233759 27 180 0.0 0.0 0.00 4.34 0.00 62 1003.0
20260902233514 27 180 0.0 0.0 0.00 4.34 0.00 63 1003.0